Home > Weather > Pontiac > Past weeks

Flag for USA Past Weather in Pontiac, Michigan, USA — Yesterday and Last 2 Weeks

Now
75 °F

Scattered clouds.


Feels Like: 77 °F
Forecast: 62 / 80 °F
Wind: 7 mph from North

Location: Oakland County International Airport

Current Time: May 31, 2016 at 10:28:01 AM

Latest Report: May 31, 2016 at 9:53 AM


Visibility: 10 mi

Pressure: 30.03 "Hg

Humidity: 37%

Dew Point: 47 °F

Location of PontiacLocation

Past Weather in Pontiac — Graph

°F

Pontiac Temperature Yesterday

Maximum temperature yesterday: 82 °F (at 3:53 PM)
Minimum temperature yesterday: 62 °F (at 5:53 AM)
Average temperature yesterday: 73 °F

High & Low Weather Summary for the Past Weeks

 TemperatureHumidityPressure
High88 °F (May 28, 1:53 PM)93% (May 19, 5:53 AM)30.26 "Hg (May 19, 5:53 AM)
Low39 °F (May 18, 5:53 AM)11% (May 23, 2:53 PM)29.85 "Hg (May 26, 8:53 PM)
Average66 °F54%30.04 "Hg
* Reported May 16 8:53 AM — May 31 8:53 AM, Pontiac, Weather by CustomWeather, © 2016

Note: Actual official high and low records may vary slightly from our data, if they occured in-between our weather recording intervals... More about our weather records

Advertising

Pontiac Weather History for the Previous 24 Hours

Scroll right to see more
 ConditionsComfort  
Time TempWeatherWind HumidityBarometerVisibility
8:53 AM
Tue, May 31
72 °FPassing clouds.8 mph43%30.03 "Hg10 mi
7:53 AM67 °FPassing clouds.5 mph61%30.02 "Hg10 mi
6:53 AM59 °FPassing clouds.No wind81%30.01 "Hg10 mi
5:53 AM55 °FPassing clouds.3 mph83%29.99 "Hg10 mi
4:53 AM58 °FClear.No wind75%29.99 "Hg10 mi
3:53 AM62 °FClear.No wind62%29.97 "Hg10 mi
2:53 AM63 °FClear.3 mph63%29.97 "Hg10 mi
1:53 AM64 °FClear.3 mph63%29.97 "Hg10 mi
12:53 AM67 °FClear.6 mph61%29.97 "Hg10 mi
11:53 PM
Mon, May 30
69 °FClear.6 mph61%29.97 "Hg10 mi
10:53 PM71 °FClear.6 mph53%29.96 "Hg10 mi
9:53 PM73 °FSunny.3 mph48%29.96 "Hg10 mi
8:53 PM76 °FSunny.6 mph43%29.94 "Hg10 mi
7:53 PM80 °FPassing clouds.9 mph38%29.93 "Hg10 mi
6:53 PM81 °FScattered clouds.13 mph37%29.93 "Hg10 mi
5:53 PM82 °FScattered clouds.9 mph34%29.93 "Hg10 mi
4:53 PM82 °FScattered clouds.10 mph35%29.94 "Hg10 mi
3:53 PM82 °FScattered clouds.13 mph37%29.95 "Hg10 mi
2:53 PM79 °FPartly sunny.12 mph41%29.98 "Hg10 mi
1:53 PM80 °FPartly sunny.10 mph41%29.98 "Hg10 mi
12:53 PM79 °FPartly sunny.7 mph44%29.98 "Hg10 mi
11:53 AM77 °FScattered clouds.10 mph47%29.98 "Hg10 mi
10:53 AM76 °FScattered clouds.6 mph48%29.98 "Hg10 mi
Weather by CustomWeather, © 2016

See weather overviewHow to use our weather pages